[[{"header":{"parameterUnit":"m.s-1","parameterCategory":1,"la1":30.2991,"la2":30.254,"lo1":-89.0895,"lo2":-89.0444,"dy":0.0017,"dx":0.0017,"nx":28,"ny":28,"refTime":"2024-05-25T21:00:00:Z","depth":0,"parameterNumber":2,"parameterNumberName":"U-component_of_WINDS"},"data":[0,0,0,0,0,0,0,0,0,0,0,0,0,0,0,0,0,0,0,0,0,0,0,0,0,0,0,0,0,0,0,0,0,0,0,0,0,0,0,0,0,0,0,0,0,0,0,0,0,0,0,0,0,0,0,0,0,0,-0.8735,-0.8735,0,-0.8737,-0.8737,-0.8737,-0.8763,-0.8764,-0.8764,-0.8765,-0.8765,-0.8764,-0.8763,0,0,0,0,0,0,0,0,0,0,0,0,0,-0.8753,-0.8752,-0.8735,-0.8735,-0.8735,-0.8737,-0.8737,-0.8737,-0.8763,-0.8764,-0.8765,-0.8765,-0.8765,-0.8764,-0.8763,0,0,0,0,0,0,0,0,0,0,0,0,0,-0.8749,-0.8752,-0.8735,-0.8749,-0.875,-0.8737,-0.8737,-0.8737,-0.8763,-0.8764,-0.8765,-0.8766,-0.8765,-0.8764,-0.8763,-0.8738,0,0,-0.876,-0.876,0,0,0,0,0,0,0,0,-0.8749,-0.8748,-0.8747,-0.8748,-0.8749,-0.8751,-0.8743,-0.8737,-0.8763,-0.8758,-0.8765,-0.8766,-0.8759,-0.8759,-0.8757,-0.8737,-0.8737,-0.876,-0.876,-0.8759,-0.8759,0,0,0,0,0,0,0,-0.8749,-0.8748,-0.8736,-0.8746,-0.8748,-0.8754,-0.8754,-0.8742,-0.8753,-0.8758,-0.876,-0.876,-0.876,-0.8758,-0.8757,-0.8737,-0.876,-0.8759,-0.8759,-0.8758,-0.8698,-0.8697,0,0,0,0,0,0,-0.8748,-0.8748,-0.8736,-0.8736,-0.8751,-0.8753,-0.8753,-0.8749,-0.8753,-0.8755,-0.8759,-0.8761,-0.8759,-0.8758,-0.8757,-0.8727,-0.8759,-0.8758,-0.8758,-0.8699,-0.8697,-0.8696,0,0,0,0,0,0,-0.8748,-0.8747,-0.8736,-0.8743,-0.8742,-0.8751,-0.8747,-0.8749,-0.8747,-0.8754,-0.8756,-0.8755,-0.876,-0.8758,-0.8742,-0.8728,-0.8758,-0.8757,-0.87,-0.8698,-0.8697,-0.8668,0,0,0,0,0,0,-0.8749,-0.8746,-0.8737,-0.8742,-0.8741,-0.8722,-0.8746,-0.8748,-0.8745,-0.8748,-0.875,-0.8752,-0.876,-0.8744,-0.8742,-0.8727,-0.8756,-0.8701,-0.8699,-0.8697,-0.867,-0.8665,-0.8662,0,0,0,0,0,-0.8749,-0.8728,-0.8736,-0.8735,-0.873,-0.8721,-0.872,-0.8731,-0.8744,-0.8734,-0.8739,-0.8752,-0.873,-0.8742,-0.874,-0.8725,-0.8702,-0.87,-0.8698,-0.8672,-0.8666,-0.8662,0,0,0,0,0,0,-0.872,-0.8729,-0.8738,-0.8719,-0.8719,-0.8725,-0.8713,-0.8725,-0.872,-0.8723,-0.8736,-0.8736,-0.8718,-0.872,-0.8733,-0.87,-0.8718,-0.8715,-0.87,-0.8694,-0.869,-0.869,-0.8756,0,0,0,0,0,-0.8712,-0.8704,-0.8712,-0.8694,-0.8694,-0.8704,-0.87,-0.8708,-0.8709,-0.8709,-0.8712,-0.8712,-0.8705,-0.87,-0.8694,-0.8671,-0.8672,-0.8659,-0.8655,-0.8652,-0.8649,-0.8637,-0.8631,-0.8689,-0.8689,-0.8689,0,0,-0.8693,-0.8698,-0.8692,-0.8688,-0.8689,-0.8681,-0.8703,-0.8693,-0.8687,-0.8707,-0.8692,-0.8695,-0.8695,-0.8676,-0.8667,-0.8676,-0.8633,-0.8649,-0.8646,-0.8645,-0.8634,-0.8628,-0.8623,-0.8687,-0.8687,-0.8688,0,0,-0.8656,-0.8659,-0.8644,-0.8645,-0.8647,-0.8654,-0.865,-0.8655,-0.8658,-0.8644,-0.8659,-0.8651,-0.8639,-0.8639,-0.8637,-0.86,-0.8612,-0.8598,-0.8575,-0.8563,-0.8559,-0.8555,-0.8542,-0.8537,-0.8595,-0.8595,-0.8595,0,-0.8633,-0.8621,-0.8635,-0.8624,-0.8622,-0.8641,-0.8626,-0.8626,-0.8626,-0.8623,-0.8634,-0.862,-0.8621,-0.8602,-0.8593,-0.8591,-0.8587,-0.8597,-0.8559,-0.8555,-0.8551,-0.8539,-0.8534,-0.8594,-0.8594,-0.8594,-0.8594,0,-0.8593,-0.8585,-0.8573,-0.8573,-0.8569,-0.8556,-0.8568,-0.8562,-0.8572,-0.8577,-0.8563,-0.8565,-0.856,-0.8556,-0.8565,-0.8538,-0.8544,-0.8556,-0.8575,-0.8544,-0.8532,-0.8528,-0.8591,-0.8592,-0.8592,-0.8593,0,0,-0.8537,-0.8545,-0.854,-0.8541,-0.8545,-0.8538,-0.8526,-0.8522,-0.8518,-0.8517,-0.8507,-0.8497,-0.8508,-0.8506,-0.8515,-0.8505,-0.8476,-0.8518,-0.8519,-0.851,-0.8447,-0.8437,-0.8431,-0.8484,-0.8483,-0.8482,-0.8447,0,-0.8501,-0.8481,-0.8493,-0.8472,-0.8464,-0.8483,-0.8472,-0.8473,-0.8478,-0.8472,-0.8478,-0.847,-0.8486,-0.8485,-0.8476,-0.8481,-0.8463,-0.8484,-0.8474,-0.8473,-0.8473,-0.8425,-0.8415,-0.8382,-0.8442,-0.8442,-0.8441,0,-0.8456,-0.8454,-0.8432,-0.8438,-0.8435,-0.8426,-0.8423,-0.8418,-0.8419,-0.8424,-0.8422,-0.8433,-0.8421,-0.844,-0.8424,-0.8438,-0.8434,-0.8436,-0.8435,-0.8434,-0.8455,-0.8423,-0.8371,-0.8366,-0.8434,-0.8435,-0.8435,0,-0.8417,-0.8409,-0.8395,-0.8395,-0.8401,-0.8394,-0.8396,-0.8399,-0.8396,-0.8394,-0.8392,-0.8388,-0.8386,-0.8382,-0.8392,-0.8405,-0.8375,-0.8394,-0.8377,-0.8377,-0.837,-0.837,-0.8316,-0.8368,-0.8368,-0.8368,-0.8368,0,-0.8375,-0.8361,-0.8378,-0.8369,-0.8353,-0.8367,-0.8351,-0.8356,-0.8358,-0.835,-0.8366,-0.8358,-0.8371,-0.8365,-0.8372,-0.8358,-0.8357,-0.8359,-0.8361,-0.8358,-0.8357,-0.8355,-0.8358,-0.8367,-0.8367,-0.8368,-0.8368,0,-0.8329,-0.8339,-0.8325,-0.8333,-0.8335,-0.8323,-0.8329,-0.8321,-0.8328,-0.8318,-0.8316,-0.8326,-0.8319,-0.8329,-0.8323,-0.8328,-0.8308,-0.8313,-0.8307,-0.8309,-0.8291,-0.8293,-0.8234,-0.8227,-0.8284,-0.8283,-0.8283,0,-0.8301,-0.8291,-0.8298,-0.8294,-0.8296,-0.8289,-0.8287,-0.83,-0.8297,-0.8298,-0.829,-0.8284,-0.8281,-0.8269,-0.8275,-0.827,-0.8276,-0.8256,-0.8275,-0.8272,-0.8275,-0.8276,-0.8274,-0.8251,-0.8251,-0.825,-0.825,0,-0.8251,-0.8257,-0.8253,-0.8251,-0.8248,-0.8247,-0.8246,-0.8242,-0.8256,-0.8252,-0.8245,-0.8243,-0.8237,-0.8231,-0.8228,-0.823,-0.8242,-0.8244,-0.824,-0.8235,-0.8232,-0.8234,-0.8296,-0.8245,-0.8245,-0.8246,-0.8246,-0.8246,-0.8214,-0.8205,-0.8209,-0.8204,-0.8206,-0.8205,-0.8198,-0.8204,-0.82,-0.8196,-0.8205,-0.8196,-0.8198,-0.8196,-0.8196,-0.819,-0.8198,-0.8192,-0.8191,-0.8189,-0.8186,-0.8234,-0.8189,-0.8189,-0.8189,-0.819,-0.819,0,-0.8165,-0.8168,-0.8163,-0.8163,-0.8159,-0.8172,-0.8173,-0.8168,-0.8161,-0.8162,-0.8159,-0.8151,-0.8146,-0.8152,-0.8148,-0.8141,-0.8147,-0.814,-0.814,-0.814,-0.8179,-0.8183,-0.8135,-0.8135,-0.8135,-0.8135,-0.8135,-0.8135,-0.8139,-0.8125,-0.8132,-0.8119,-0.8123,-0.8115,-0.8115,-0.8114,-0.8115,-0.8107,-0.8103,-0.8107,-0.811,-0.8107,-0.8102,-0.8104,-0.8102,-0.8093,-0.8096,-0.8132,-0.8137,-0.8143,-0.8146,-0.8092,-0.8092,-0.8058,-0.8058,-0.8058]},{"header":{"parameterUnit":"m.s-1","parameterCategory":1,"la1":30.2991,"la2":30.254,"lo1":-89.0895,"lo2":-89.0444,"dy":0.0017,"dx":0.0017,"nx":28,"ny":28,"refTime":"2024-05-25T21:00:00:Z","depth":0,"parameterNumber":3,"parameterNumberName":"V-component_of_WINDS"},"data":[0,0,0,0,0,0,0,0,0,0,0,0,0,0,0,0,0,0,0,0,0,0,0,0,0,0,0,0,0,0,0,0,0,0,0,0,0,0,0,0,0,0,0,0,0,0,0,0,0,0,0,0,0,0,0,0,0,0,6.9156,6.9156,0,6.9176,6.9176,6.9176,6.9109,6.9107,6.9105,6.9103,6.912,6.9122,6.9124,0,0,0,0,0,0,0,0,0,0,0,0,0,6.9057,6.9059,6.9156,6.9156,6.9156,6.9176,6.9176,6.9176,6.9109,6.9107,6.9104,6.9102,6.9119,6.9122,6.9124,0,0,0,0,0,0,0,0,0,0,0,0,0,6.9091,6.906,6.9156,6.9125,6.9123,6.9176,6.9176,6.9176,6.911,6.9106,6.9103,6.9101,6.9118,6.9121,6.9125,6.9207,0,0,6.9135,6.9137,0,0,0,0,0,0,0,0,6.9089,6.9094,6.913,6.9128,6.9125,6.9137,6.9147,6.9186,6.911,6.9114,6.9103,6.9099,6.9127,6.913,6.914,6.9208,6.9208,6.9136,6.9138,6.9139,6.914,0,0,0,0,0,0,0,6.9087,6.9093,6.9164,6.913,6.9127,6.911,6.9111,6.9154,6.9138,6.9114,6.9109,6.9112,6.9126,6.9137,6.914,6.9208,6.9136,6.9139,6.9141,6.9142,6.9344,6.9347,0,0,0,0,0,0,6.9089,6.9092,6.9163,6.9164,6.9099,6.9114,6.9115,6.9136,6.9137,6.9134,6.9115,6.9109,6.9132,6.9136,6.914,6.9236,6.9139,6.9143,6.9145,6.934,6.9344,6.9348,0,0,0,0,0,0,6.9087,6.9096,6.9162,6.9127,6.9134,6.9119,6.9142,6.9138,6.9149,6.9138,6.9134,6.913,6.913,6.9135,6.9191,6.9236,6.9144,6.9147,6.9337,6.9342,6.9346,6.9428,0,0,0,0,0,0,6.9084,6.9095,6.9127,6.9128,6.9136,6.9213,6.9145,6.914,6.9156,6.9148,6.9151,6.9148,6.9128,6.9186,6.9194,6.9239,6.915,6.9332,6.9339,6.9345,6.9421,6.9435,6.9447,0,0,0,0,0,6.9081,6.9149,6.9129,6.9138,6.9175,6.9216,6.9221,6.9197,6.916,6.9191,6.9184,6.9148,6.923,6.9192,6.9201,6.9247,6.9329,6.9337,6.9344,6.9416,6.9433,6.9447,0,0,0,0,0,0,6.9152,6.9148,6.9126,6.9197,6.9208,6.9205,6.9243,6.9216,6.9236,6.9228,6.9197,6.9198,6.9259,6.9259,6.9217,6.9326,6.9273,6.9282,6.9324,6.934,6.9353,6.9351,6.9153,0,0,0,0,0,6.9176,6.9211,6.9205,6.9268,6.9274,6.9258,6.9275,6.9256,6.9265,6.9269,6.9266,6.9276,6.9303,6.9322,6.9347,6.9422,6.942,6.9458,6.947,6.9481,6.9489,6.9528,6.9544,6.9372,6.9372,6.9372,0,0,6.9226,6.9228,6.9252,6.9282,6.9288,6.9323,6.9262,6.9302,6.9328,6.9275,6.9327,6.9325,6.9334,6.9399,6.9428,6.9401,6.9537,6.949,6.9499,6.9501,6.9537,6.9554,6.9568,6.9377,6.9376,6.9375,0,0,6.9334,6.934,6.9393,6.94,6.9411,6.94,6.9413,6.9415,6.9412,6.9464,6.9425,6.9455,6.9503,6.9511,6.9521,6.9633,6.9601,6.9642,6.9709,6.9747,6.9761,6.9773,6.9812,6.9827,6.9651,6.9651,6.9651,0,6.9394,6.9447,6.9423,6.9466,6.948,6.9435,6.9488,6.9496,6.9514,6.9524,6.9494,6.9554,6.9557,6.9623,6.9651,6.9661,6.9673,6.9641,6.9761,6.9773,6.9784,6.9821,6.9836,6.9656,6.9655,6.9655,6.9654,0,6.952,6.9557,6.9598,6.9618,6.9637,6.9684,6.9666,6.9688,6.9668,6.966,6.9713,6.9715,6.974,6.9754,6.9735,6.9818,6.9801,6.9767,6.9712,6.9805,6.9839,6.9854,6.9663,6.9661,6.966,6.9658,0,0,6.9672,6.9679,6.9694,6.9702,6.9711,6.9739,6.9784,6.9809,6.9828,6.9843,6.9879,6.9922,6.989,6.9902,6.9883,6.9917,7.0005,6.9878,6.9878,6.9901,7.0096,7.0121,7.0138,6.9984,6.9987,6.9989,7.0095,0,6.9778,6.9856,6.9836,6.9914,6.9948,6.9906,6.9946,6.9955,6.9949,6.9976,6.9968,6.9999,6.9956,6.9963,6.9994,6.9988,7.0043,6.998,7.0017,7.0018,7.0015,7.0156,7.0182,7.0282,7.0108,7.0111,7.0112,0,6.9911,6.9932,7.0014,7.0017,7.0031,7.0066,7.0088,7.0115,7.0124,7.0117,7.0131,7.0105,7.0149,7.0096,7.0155,7.0112,7.0126,7.0125,7.0128,7.013,7.007,7.016,7.0313,7.0328,7.0133,7.0131,7.013,0,7.0013,7.0061,7.0116,7.0125,7.0131,7.0157,7.016,7.0167,7.0183,7.0202,7.0212,7.0235,7.0247,7.0266,7.0246,7.021,7.0308,7.0253,7.0303,7.0303,7.0324,7.0323,7.0481,7.0336,7.0336,7.0335,7.0335,0,7.0132,7.0184,7.0162,7.0196,7.0252,7.0228,7.0284,7.0282,7.0289,7.032,7.0286,7.0317,7.029,7.0318,7.0303,7.0354,7.036,7.0355,7.035,7.0358,7.0358,7.0365,7.0357,7.0339,7.0338,7.0338,7.0337,0,7.0255,7.0243,7.03,7.0301,7.0303,7.0344,7.0344,7.0375,7.0367,7.0408,7.0416,7.0403,7.0434,7.0418,7.0449,7.044,7.0505,7.0492,7.0502,7.0498,7.0548,7.0544,7.0715,7.0736,7.0579,7.0581,7.0582,0,7.0331,7.037,7.0376,7.0396,7.0402,7.0434,7.0451,7.0429,7.0448,7.0462,7.0491,7.052,7.0541,7.0592,7.0585,7.0609,7.0595,7.0654,7.0598,7.0605,7.0595,7.0592,7.0596,7.0664,7.0666,7.0668,7.0669,0,7.0468,7.046,7.0487,7.0512,7.0533,7.0551,7.0566,7.0584,7.0563,7.0585,7.0618,7.0635,7.0668,7.0696,7.0717,7.0719,7.069,7.0687,7.0699,7.0706,7.0711,7.0708,7.0531,7.0683,7.0681,7.068,7.0679,7.0679,7.0569,7.0601,7.0611,7.0642,7.0651,7.0666,7.0695,7.0692,7.0718,7.0744,7.073,7.0767,7.0775,7.0801,7.0807,7.0835,7.0811,7.083,7.0834,7.0839,7.0845,7.0708,7.0839,7.0839,7.0838,7.0838,7.0838,0,7.0703,7.0707,7.0736,7.0759,7.0783,7.0756,7.0771,7.0793,7.0827,7.0837,7.086,7.0897,7.0924,7.092,7.0945,7.0968,7.0956,7.0975,7.0972,7.0973,7.0865,7.0852,7.0985,7.0985,7.0985,7.0985,7.0985,7.0985,7.0775,7.0829,7.0822,7.088,7.0883,7.0921,7.0932,7.0945,7.0954,7.0997,7.102,7.1018,7.1022,7.1047,7.1071,7.1069,7.1079,7.1104,7.1097,7.0996,7.0981,7.0967,7.0954,7.1106,7.1107,7.1202,7.1203,7.1204]}]]